HAWK55 KNUW-KNUW

Flight info

Callsign HAWK55
Flight time 0h 56m
Altitude 3000
Route NUW
Aircraft F35/M-SDFIRY/LB1

Departure

Time 2026-05-07 00:37
Airport Whidbey Island Naval Air Station (Ault Field) (KNUW)

Arrival

Time 2026-05-07 01:34
Airport Whidbey Island Naval Air Station (Ault Field) (KNUW)
Time Latitude Longitude Altitude Speed Heading
2026-05-07 00:23 48.34801 -122.66960 31 ft 0 kts 324°
2026-05-07 00:29 48.34844 -122.66966 31 ft 12 kts 38°
2026-05-07 00:29 48.34853 -122.66847 32 ft 11 kts 104°
2026-05-07 00:30 48.34710 -122.66632 33 ft 10 kts 145°
2026-05-07 00:30 48.34656 -122.66577 33 ft 10 kts 145°
2026-05-07 00:30 48.34589 -122.66506 33 ft 11 kts 145°
2026-05-07 00:30 48.34531 -122.66446 34 ft 9 kts 145°
2026-05-07 00:31 48.34483 -122.66396 34 ft 8 kts 145°
2026-05-07 00:31 48.34420 -122.66331 34 ft 11 kts 146°
2026-05-07 00:31 48.34361 -122.66270 35 ft 9 kts 145°
2026-05-07 00:31 48.34298 -122.66205 35 ft 12 kts 145°
2026-05-07 00:32 48.34228 -122.66132 35 ft 13 kts 144°
2026-05-07 00:32 48.34124 -122.66024 36 ft 20 kts 146°
2026-05-07 00:32 48.34016 -122.65913 37 ft 18 kts 145°
2026-05-07 00:32 48.33933 -122.65819 37 ft 11 kts 133°
2026-05-07 00:33 48.33943 -122.65729 37 ft 11 kts 64°
2026-05-07 00:33 48.33993 -122.65570 38 ft 18 kts 64°
2026-05-07 00:33 48.34046 -122.65405 38 ft 17 kts 64°
2026-05-07 00:33 48.34097 -122.65261 38 ft 15 kts 53°
2026-05-07 00:34 48.34172 -122.65172 38 ft 13 kts 25°
2026-05-07 00:34 48.34256 -122.65145 38 ft 12 kts
2026-05-07 00:34 48.34332 -122.65133 37 ft 10 kts
2026-05-07 00:34 48.34402 -122.65124 36 ft 10 kts
2026-05-07 00:35 48.34476 -122.65120 34 ft 13 kts 359°
2026-05-07 00:35 48.34610 -122.65152 35 ft 26 kts 342°
2026-05-07 00:35 48.34797 -122.65278 36 ft 30 kts 335°
2026-05-07 00:35 48.34975 -122.65402 36 ft 24 kts 334°
2026-05-07 00:36 48.35096 -122.65489 36 ft 18 kts 334°
2026-05-07 00:36 48.35194 -122.65467 37 ft 15 kts 74°
2026-05-07 00:36 48.35201 -122.65307 37 ft 21 kts 87°
2026-05-07 00:36 48.35194 -122.65197 37 ft 6 kts 45°
2026-05-07 00:37 48.35205 -122.65234 37 ft 5 kts 265°
2026-05-07 00:37 48.35196 -122.65470 37 ft 90 kts 266°
2026-05-07 00:37 48.35133 -122.67253 218 ft 230 kts 266°
2026-05-07 00:37 48.34535 -122.69444 728 ft 236 kts 200°
2026-05-07 00:38 48.33341 -122.68474 866 ft 219 kts 96°
2026-05-07 00:38 48.33447 -122.66153 841 ft 211 kts 87°
2026-05-07 00:38 48.33554 -122.64138 793 ft 188 kts 87°
2026-05-07 00:38 48.33741 -122.62144 832 ft 196 kts 64°
2026-05-07 00:39 48.34810 -122.61385 576 ft 180 kts 324°
2026-05-07 00:39 48.35265 -122.62905 242 ft 159 kts 269°
2026-05-07 00:39 48.35229 -122.64497 37 ft 142 kts 265°
2026-05-07 00:39 48.35188 -122.65716 34 ft 128 kts 267°
2026-05-07 00:40 48.35127 -122.67520 318 ft 205 kts 265°
2026-05-07 00:40 48.34886 -122.69836 1071 ft 222 kts 220°
2026-05-07 00:40 48.33667 -122.69415 1124 ft 216 kts 122°
2026-05-07 00:40 48.33407 -122.67194 1102 ft 220 kts 87°
2026-05-07 00:41 48.33534 -122.64959 1152 ft 209 kts 86°
2026-05-07 00:41 48.33687 -122.62839 1185 ft 205 kts 85°
2026-05-07 00:41 48.33850 -122.60895 1138 ft 172 kts 82°
2026-05-07 00:41 48.34704 -122.59776 949 ft 190 kts 342°
2026-05-07 00:42 48.35316 -122.61303 533 ft 184 kts 270°
2026-05-07 00:42 48.35278 -122.63124 213 ft 164 kts 265°
2026-05-07 00:42 48.35221 -122.64786 39 ft 142 kts 265°
2026-05-07 00:42 48.35177 -122.65997 32 ft 136 kts 266°
2026-05-07 00:43 48.35126 -122.67776 489 ft 196 kts 265°
2026-05-07 00:43 48.35025 -122.70184 1336 ft 258 kts 252°
2026-05-07 00:43 48.33665 -122.71052 1593 ft 250 kts 159°
2026-05-07 00:43 48.32635 -122.69005 1840 ft 266 kts 94°
2026-05-07 00:44 48.32686 -122.66238 1692 ft 264 kts 88°
2026-05-07 00:44 48.32795 -122.63671 1616 ft 223 kts 86°
2026-05-07 00:44 48.32917 -122.61637 1499 ft 174 kts 86°
2026-05-07 00:44 48.33053 -122.59760 1502 ft 190 kts 86°
2026-05-07 00:45 48.33701 -122.58208 1449 ft 192 kts 12°
2026-05-07 00:45 48.34889 -122.58926 1307 ft 193 kts 304°
2026-05-07 00:45 48.35345 -122.60703 821 ft 177 kts 274°
2026-05-07 00:45 48.35313 -122.62446 392 ft 160 kts 263°
2026-05-07 00:46 48.35249 -122.64027 74 ft 143 kts 264°
2026-05-07 00:46 48.35203 -122.65271 37 ft 97 kts 267°
2026-05-07 00:46 48.35149 -122.66806 162 ft 196 kts 266°
2026-05-07 00:46 48.35580 -122.68766 862 ft 209 kts 342°
2026-05-07 00:47 48.36945 -122.67841 1281 ft 260 kts 43°
2026-05-07 00:47 48.38467 -122.65877 1406 ft 307 kts 41°
2026-05-07 00:47 48.39782 -122.63434 1618 ft 299 kts 73°
2026-05-07 00:47 48.39570 -122.60529 1636 ft 281 kts 126°
2026-05-07 00:48 48.38366 -122.58349 1744 ft 266 kts 133°
2026-05-07 00:48 48.37111 -122.56413 1640 ft 239 kts 157°
2026-05-07 00:48 48.35835 -122.57447 1509 ft 251 kts 252°
2026-05-07 00:48 48.35450 -122.60018 1198 ft 253 kts 259°
2026-05-07 00:49 48.35302 -122.62766 1117 ft 273 kts 266°
2026-05-07 00:49 48.35071 -122.65601 1015 ft 254 kts 219°
2026-05-07 00:49 48.34174 -122.64762 962 ft 202 kts 91°
2026-05-07 00:49 48.34286 -122.62803 1092 ft 171 kts 88°
2026-05-07 00:50 48.35006 -122.61585 780 ft 192 kts 330°
2026-05-07 00:50 48.35293 -122.63176 330 ft 160 kts 265°
2026-05-07 00:50 48.35233 -122.64721 37 ft 129 kts 265°
2026-05-07 00:50 48.35188 -122.65905 33 ft 139 kts 266°
2026-05-07 00:51 48.35123 -122.67706 322 ft 203 kts 268°
2026-05-07 00:51 48.36105 -122.69347 872 ft 260 kts 347°
2026-05-07 00:51 48.37985 -122.69113 897 ft 291 kts 21°
2026-05-07 00:51 48.39217 -122.68230 917 ft 304 kts 29°
2026-05-07 00:52 48.40813 -122.66071 775 ft 322 kts 65°
2026-05-07 00:52 48.40722 -122.61868 1324 ft 305 kts 102°
2026-05-07 00:52 48.40212 -122.58765 1345 ft 306 kts 117°
2026-05-07 00:52 48.38692 -122.56705 1330 ft 301 kts 157°
2026-05-07 00:53 48.36690 -122.56795 1388 ft 296 kts 210°
2026-05-07 00:53 48.35762 -122.58384 1388 ft 329 kts 246°
2026-05-07 00:53 48.35333 -122.62040 928 ft 390 kts 264°
2026-05-07 00:53 48.34987 -122.66268 599 ft 399 kts 225°
2026-05-07 00:54 48.33630 -122.64842 764 ft 301 kts 86°
2026-05-07 00:54 48.33802 -122.62197 877 ft 203 kts 84°
2026-05-07 00:54 48.34589 -122.60291 739 ft 178 kts 358°
2026-05-07 00:54 48.35258 -122.60887 584 ft 174 kts 285°
2026-05-07 00:55 48.35293 -122.62602 294 ft 157 kts 265°
2026-05-07 00:55 48.35240 -122.64226 61 ft 153 kts 265°
2026-05-07 00:55 48.35192 -122.65543 36 ft 100 kts 266°
2026-05-07 00:55 48.35136 -122.66932 116 ft 182 kts 256°
2026-05-07 00:56 48.33945 -122.67853 744 ft 255 kts 158°
2026-05-07 00:56 48.33407 -122.65708 772 ft 223 kts 91°
2026-05-07 00:56 48.33434 -122.63611 819 ft 186 kts 90°
2026-05-07 00:56 48.33585 -122.61811 768 ft 174 kts 47°
2026-05-07 00:57 48.34678 -122.61743 704 ft 183 kts 320°
2026-05-07 00:57 48.35258 -122.63305 284 ft 168 kts 270°
2026-05-07 00:57 48.35217 -122.64869 38 ft 127 kts 266°
2026-05-07 00:57 48.35180 -122.65910 32 ft 83 kts 267°
2026-05-07 00:58 48.35135 -122.67107 73 ft 166 kts 265°
2026-05-07 00:58 48.34818 -122.69081 868 ft 222 kts 231°
2026-05-07 00:58 48.33408 -122.69964 1058 ft 240 kts 163°
2026-05-07 00:58 48.32592 -122.68244 1082 ft 196 kts 95°
2026-05-07 00:59 48.32642 -122.64667 902 ft 168 kts 89°
2026-05-07 00:59 48.32675 -122.62914 1023 ft 170 kts 92°
2026-05-07 00:59 48.32723 -122.61301 1071 ft 146 kts 88°
2026-05-07 01:00 48.32810 -122.59725 1141 ft 159 kts 86°
2026-05-07 01:00 48.33050 -122.58103 1225 ft 162 kts 55°
2026-05-07 01:00 48.34133 -122.57693 981 ft 195 kts 332°
2026-05-07 01:00 48.35004 -122.59179 950 ft 180 kts 291°
2026-05-07 01:01 48.35298 -122.60868 585 ft 163 kts 272°
2026-05-07 01:01 48.35297 -122.62531 311 ft 155 kts 264°
2026-05-07 01:01 48.35244 -122.64144 75 ft 153 kts 264°
2026-05-07 01:01 48.35197 -122.65412 37 ft 97 kts 266°
2026-05-07 01:02 48.35148 -122.66789 142 ft 177 kts 265°
2026-05-07 01:02 48.34776 -122.68874 520 ft 244 kts 228°
2026-05-07 01:02 48.33581 -122.71344 271 ft 350 kts 261°
2026-05-07 01:02 48.32796 -122.70986 702 ft 256 kts
2026-05-07 01:03 48.33753 -122.72230 480 ft 233 kts 188°
2026-05-07 01:03 48.33536 -122.70418 671 ft 271 kts 69°
2026-05-07 01:03 48.33737 -122.67549 956 ft 270 kts 93°
2026-05-07 01:03 48.33718 -122.64816 1001 ft 259 kts 91°
2026-05-07 01:04 48.33733 -122.62374 974 ft 192 kts 89°
2026-05-07 01:04 48.33989 -122.60733 878 ft 168 kts 40°
2026-05-07 01:04 48.35075 -122.60957 768 ft 181 kts 297°
2026-05-07 01:04 48.35278 -122.62646 426 ft 153 kts 266°
2026-05-07 01:05 48.35239 -122.64271 58 ft 149 kts 264°
2026-05-07 01:05 48.35191 -122.65614 35 ft 103 kts 267°
2026-05-07 01:05 48.35148 -122.66793 40 ft 155 kts 266°
2026-05-07 01:05 48.35272 -122.68708 670 ft 217 kts 301°
2026-05-07 01:06 48.36677 -122.69903 1222 ft 260 kts 355°
2026-05-07 01:06 48.38433 -122.69158 1149 ft 272 kts 32°
2026-05-07 01:06 48.39971 -122.67370 1041 ft 288 kts 43°
2026-05-07 01:06 48.41227 -122.64994 1051 ft 289 kts 71°
2026-05-07 01:07 48.41234 -122.62149 1397 ft 275 kts 111°
2026-05-07 01:07 48.40274 -122.59657 1391 ft 278 kts 126°
2026-05-07 01:07 48.39478 -122.57129 1417 ft 257 kts 66°
2026-05-07 01:07 48.40640 -122.57274 1322 ft 225 kts 286°
2026-05-07 01:08 48.39945 -122.58918 1219 ft 218 kts 171°
2026-05-07 01:08 48.39428 -122.57182 1168 ft 225 kts 59°
2026-05-07 01:08 48.40801 -122.56851 1167 ft 229 kts 308°
2026-05-07 01:08 48.40412 -122.58501 1165 ft 202 kts 183°
2026-05-07 01:09 48.39792 -122.57096 1156 ft 209 kts 54°
2026-05-07 01:09 48.40429 -122.55464 1088 ft 161 kts 135°
2026-05-07 01:09 48.39531 -122.54837 990 ft 147 kts 168°
2026-05-07 01:09 48.38410 -122.54680 1117 ft 181 kts 184°
2026-05-07 01:10 48.37129 -122.55210 1141 ft 198 kts 210°
2026-05-07 01:10 48.36205 -122.56668 993 ft 204 kts 238°
2026-05-07 01:10 48.35737 -122.58532 791 ft 178 kts 255°
2026-05-07 01:10 48.35545 -122.60358 628 ft 184 kts 261°
2026-05-07 01:11 48.35388 -122.62451 359 ft 226 kts 262°
2026-05-07 01:11 48.35244 -122.64749 199 ft 210 kts 264°
2026-05-07 01:11 48.35172 -122.66701 341 ft 162 kts 265°
2026-05-07 01:11 48.35115 -122.68212 499 ft 134 kts 263°
2026-05-07 01:12 48.35031 -122.69500 658 ft 126 kts 255°
2026-05-07 01:12 48.34651 -122.70706 951 ft 129 kts 227°
2026-05-07 01:12 48.33879 -122.71331 1109 ft 129 kts 186°
2026-05-07 01:12 48.32848 -122.70953 1270 ft 187 kts 154°
2026-05-07 01:13 48.31926 -122.69501 1496 ft 206 kts 115°
2026-05-07 01:13 48.31597 -122.67258 1640 ft 236 kts 98°
2026-05-07 01:13 48.31483 -122.64658 1773 ft 263 kts 94°
2026-05-07 01:13 48.31398 -122.61942 1847 ft 256 kts 94°
2026-05-07 01:14 48.31391 -122.59318 2019 ft 241 kts 89°
2026-05-07 01:14 48.31807 -122.57222 2388 ft 193 kts 38°
2026-05-07 01:14 48.33031 -122.56681 2171 ft 176 kts
2026-05-07 01:14 48.34131 -122.56540 1918 ft 154 kts 355°
2026-05-07 01:15 48.35151 -122.57197 1778 ft 170 kts 310°
2026-05-07 01:15 48.35557 -122.58787 1618 ft 164 kts 270°
2026-05-07 01:15 48.35548 -122.60492 1484 ft 164 kts 263°
2026-05-07 01:15 48.35474 -122.62246 1203 ft 168 kts 262°
2026-05-07 01:16 48.35364 -122.63910 599 ft 142 kts 260°
2026-05-07 01:16 48.35259 -122.65347 212 ft 144 kts 262°
2026-05-07 01:16 48.35193 -122.66994 330 ft 169 kts 265°
2026-05-07 01:16 48.35158 -122.68891 750 ft 197 kts 266°
2026-05-07 01:17 48.34863 -122.71030 1334 ft 229 kts 240°
2026-05-07 01:17 48.33545 -122.72624 1843 ft 273 kts 199°
2026-05-07 01:17 48.31662 -122.72375 1977 ft 277 kts 151°
2026-05-07 01:17 48.30425 -122.70333 1956 ft 258 kts 118°
2026-05-07 01:18 48.30003 -122.67765 1930 ft 253 kts 93°
2026-05-07 01:18 48.30074 -122.65157 1922 ft 248 kts 87°
2026-05-07 01:18 48.30215 -122.62595 1907 ft 243 kts 85°
2026-05-07 01:18 48.30393 -122.60131 1886 ft 237 kts 83°
2026-05-07 01:19 48.30889 -122.57848 1982 ft 226 kts 62°
2026-05-07 01:19 48.31981 -122.56124 1990 ft 247 kts 33°
2026-05-07 01:19 48.33657 -122.55351 1964 ft 262 kts 359°
2026-05-07 01:19 48.35151 -122.56611 1865 ft 259 kts 297°
2026-05-07 01:20 48.35477 -122.59343 1245 ft 282 kts 266°
2026-05-07 01:20 48.35347 -122.62368 769 ft 296 kts 264°
2026-05-07 01:20 48.35212 -122.65646 516 ft 333 kts 265°
2026-05-07 01:20 48.35078 -122.69247 912 ft 361 kts 265°
2026-05-07 01:21 48.34839 -122.73177 1773 ft 388 kts 263°
2026-05-07 01:21 48.34446 -122.76985 3006 ft 330 kts 257°
2026-05-07 01:21 48.33898 -122.80012 4201 ft 276 kts 253°
2026-05-07 01:21 48.33283 -122.82568 4326 ft 247 kts 250°
2026-05-07 01:22 48.32693 -122.84906 3989 ft 226 kts 252°
2026-05-07 01:22 48.32179 -122.87077 3886 ft 208 kts 238°
2026-05-07 01:22 48.31082 -122.88262 3920 ft 202 kts 203°
2026-05-07 01:22 48.29757 -122.88794 3993 ft 200 kts 189°
2026-05-07 01:23 48.28426 -122.88261 3873 ft 206 kts 141°
2026-05-07 01:23 48.27636 -122.86400 3916 ft 219 kts 111°
2026-05-07 01:23 48.27352 -122.84253 4014 ft 209 kts 85°
2026-05-07 01:23 48.27904 -122.82322 3863 ft 198 kts 39°
2026-05-07 01:24 48.29153 -122.81309 3967 ft 208 kts 17°
2026-05-07 01:24 48.30598 -122.80536 4010 ft 231 kts 17°
2026-05-07 01:24 48.32117 -122.79735 4030 ft 229 kts 16°
2026-05-07 01:24 48.33554 -122.79013 4026 ft 209 kts 15°
2026-05-07 01:25 48.34934 -122.78339 4001 ft 213 kts 15°
2026-05-07 01:25 48.36343 -122.77651 3895 ft 213 kts 14°
2026-05-07 01:25 48.37663 -122.76729 3567 ft 212 kts 39°
2026-05-07 01:25 48.38276 -122.74724 2991 ft 220 kts 94°
2026-05-07 01:26 48.37613 -122.72818 2602 ft 204 kts 150°
2026-05-07 01:26 48.36241 -122.72320 2205 ft 206 kts 175°
2026-05-07 01:26 48.34840 -122.71842 1920 ft 209 kts 163°
2026-05-07 01:26 48.33512 -122.70966 1896 ft 206 kts 155°
2026-05-07 01:27 48.32264 -122.70006 1904 ft 202 kts 155°
2026-05-07 01:27 48.31049 -122.69058 1909 ft 187 kts 151°
2026-05-07 01:27 48.30116 -122.67771 1876 ft 175 kts 124°
2026-05-07 01:27 48.29878 -122.66008 1646 ft 184 kts 78°
2026-05-07 01:28 48.30515 -122.64421 1272 ft 165 kts 33°
2026-05-07 01:28 48.31487 -122.63964 773 ft 142 kts 356°
2026-05-07 01:28 48.32536 -122.64157 486 ft 168 kts 345°
2026-05-07 01:28 48.33772 -122.64711 327 ft 196 kts 339°
2026-05-07 01:29 48.35055 -122.65528 360 ft 209 kts 329°
2026-05-07 01:29 48.36551 -122.66618 451 ft 270 kts 336°
2026-05-07 01:29 48.38403 -122.67058 565 ft 276 kts 12°
2026-05-07 01:29 48.39758 -122.65308 721 ft 257 kts 72°
2026-05-07 01:30 48.39670 -122.62693 897 ft 257 kts 107°
2026-05-07 01:30 48.39064 -122.60116 947 ft 265 kts 114°
2026-05-07 01:30 48.38284 -122.57555 1020 ft 274 kts 118°
2026-05-07 01:30 48.36605 -122.56538 1168 ft 333 kts 218°
2026-05-07 01:31 48.35608 -122.59954 864 ft 389 kts 255°
2026-05-07 01:31 48.35231 -122.64253 455 ft 453 kts 266°
2026-05-07 01:31 48.34426 -122.68440 576 ft 392 kts 193°
2026-05-07 01:31 48.33367 -122.66282 913 ft 275 kts 87°
2026-05-07 01:32 48.33504 -122.63676 921 ft 212 kts 86°
2026-05-07 01:32 48.33635 -122.61855 880 ft 154 kts 84°
2026-05-07 01:32 48.34213 -122.60596 854 ft 160 kts 15°
2026-05-07 01:32 48.35176 -122.61135 696 ft 158 kts 293°
2026-05-07 01:33 48.35304 -122.62621 360 ft 143 kts 264°
2026-05-07 01:33 48.35246 -122.64112 63 ft 141 kts 264°
2026-05-07 01:33 48.35201 -122.65298 37 ft 91 kts 267°
2026-05-07 01:33 48.35172 -122.66119 31 ft 68 kts 266°
2026-05-07 01:34 48.35067 -122.66588 32 ft 41 kts 245°
2026-05-07 01:34 48.34965 -122.66908 31 ft 20 kts 242°
2026-05-07 01:34 48.34864 -122.67126 31 ft 32 kts 234°
2026-05-07 01:34 48.34786 -122.67191 31 ft 1 kts 88°
2026-05-07 01:35 48.34787 -122.67190 31 ft 0 kts 79°